Location: Monrovia
(34.7865°N, 86.7139°W)
Time: 21:39:20
(UTC+00:00)

Cosmos 1092 Rocket - Pass Details

Date: 14 July 2020
Orbit: 955 x 994 km, 83.0° (Epoch: 08 August)

Event Time Altitude Azimuth Distance (km) Brightness Sun altitude
Rises 09:53:37 0° 354° (N) 3,715 7.5 -9.8°
Reaches altitude 10° 09:56:09 10° 354° (N) 2,760 6.8 -9.3°
Maximum altitude 10:02:30 88° 84° (E) 992 4.1 -8.3°
Drops below altitude 10° 10:08:46 10° 175° (S) 2,722 6.1 -7.2°
Sets 10:11:15 0° 175° (S) 3,660 6.7 -6.8°
